AirNav   ATP
 
 331 users online  

2AL3 Emerald Mountain Airport
Wetumpka, Alabama, USA

GOING TO WETUMPKA?


FAA INFORMATION EFFECTIVE 07 DECEMBER 2017

Location

FAA Identifier: 2AL3
Lat/Long: 32-27-19.4910N / 086-07-09.0000W
32-27.324850N / 086-07.150000W
32.4554142 / -86.1191667
(estimated)
Elevation: 365 ft. / 111 m (estimated)
Variation: 01W (1990)
From city: 7 miles SE of WETUMPKA, AL
Time zone: UTC -6 (UTC -5 during Daylight Saving Time)
Zip code: 36093

Airport Operations

Airport use: Private use. Permission required prior to landing
Activation date: 01/1994
Control tower: no
ARTCC: ATLANTA CENTER
FSS: ANNISTON FLIGHT SERVICE STATION
Attendance: UNATNDD
Wind indicator: lighted
Segmented circle: no
Lights: ACTVT LIRL RY 06/24 - UNICOM.

Airport Communications

UNICOM: 122.8
WX ASOS at MGM (17 nm SW): PHONE 334-288-0445
WX AWOS-3P at 1A9 (20 nm W): 118.025 (334-358-0919)

Nearby radio navigation aids

VOR radial/distance  VOR name  Freq  Var
MGMr033/17.3MONTGOMERY VORTAC112.1003E
TGEr264/22.8TUSKEGEE VOR/DME117.3002E

 
NDB name  Hdg/Dist  Freq  Var  ID
GRAGG-WADE135/34.533801WGGY --. --. -.--
BLOOD003/37.536504WTOI - --- ..

Airport Services

Runway Information

Runway 6/24

Dimensions: 2750 x 80 ft. / 838 x 24 m
Surface: turf, in good condition
Runway edge lights: low intensity
RUNWAY 6  RUNWAY 24
Traffic pattern: leftleft
Obstructions: 60 ft. tree, 540 ft. from runway60 ft. tree, 1500 ft. from runway

Airport Ownership and Management from official FAA records

Ownership: Privately-owned
Owner: SIM ALLEN
407 PEACE CHURCH RD
WETUMPKA, AL 36092
Phone 205-267-0700
Manager: SIM ALLEN
407 PEACE CHURCH RD
WETUMPKA, AL 36092
Phone 205-267-0700

Airport Operational Statistics

Aircraft based on the field: 1
Single engine airplanes: 1
    

Instrument Procedures

There are no published instrument procedures at 2AL3.

Some nearby airports with instrument procedures:

08A - Wetumpka Municipal Airport (12 nm W)
KMXF - Maxwell Air Force Base (13 nm W)
KMGM - Montgomery Regional Airport (Dannelly Field) (17 nm SW)
1A9 - Prattville Airport - Grouby Field (20 nm W)
06A - Moton Field Municipal Airport (22 nm E)
 
Loc | Ops | Rwys | IFR | FBO | Links
Com | Nav | Svcs | Stats | Notes


 
Area around 2AL3 (Emerald Mountain Airport)
 
Road maps at: MapQuest Bing Google
 
Aerial photo
No photo
 
Sectional chart

 
Airport distance calculator
Flying to Emerald Mountain Airport? Find the distance to fly.

From to 2AL3

Sunrise and sunset
Times for 16-Dec-2017
 Local
(UTC-6)
 Zulu
(UTC)
Morning civil twilight06:1312:13
Sunrise06:4012:40
Sunset16:4022:40
Evening civil twilight17:0723:07

Current date and time
Zulu (UTC)  16-Dec-2017 08:46:07
Local (UTC-6)  16-Dec-2017 02:46:07
 
METAR
KMXF 
14nm SW 
160756Z AUTO 00000KT 10SM CLR M02/M02 A3026 RMK AO2 SLP251 T10211025
KMGM 
17nm SW 
160753Z AUTO 00000KT 10SM CLR M01/M04 A3028 RMK AO2 SLP254 T10111044
K1A9 
20nm W 
160835Z AUTO 00000KT 10SM CLR M03/M03 A3027 RMK AO2 T10281035
TAF
KMXF 
14nm SW 
160200Z 1602/1702 31006KT 9999 SCT200 QNH3019INS BECMG 1612/1613 04007KT 9999 FEW080 SCT180 QNH3025INS TX13/1620Z TNM02/1610Z LAST NO AMDS AFT 1604 NEXT 1612
KMGM 
17nm SW 
160540Z 1606/1706 32003KT P6SM FEW150 BKN250 FM161500 06004KT P6SM SCT250 FM161900 14004KT P6SM BKN250
NOTAMs
Click for the latest NOTAMs
NOTAMs are issued by the DoD/FAA and will open in a separate window not controlled by AirNav.

 

 
 

Would you like to see your business listed on this page?

 If your business provides an interesting product or service to pilots, flight crews, aircraft, or users of the Emerald Mountain Airport, you should consider listing it here.  To start the listing process, click on the button below
 
Add a business
 

Other Pages about Emerald Mountain Airport

Update a link
 
Copyright © AirNav, LLC. All rights reserved. Privacy Policy  Contact